[[{"header":{"parameterUnit":"m.s-1","parameterCategory":2,"la1":30.2991,"la2":30.254,"lo1":-89.0895,"lo2":-89.0444,"dy":0.0017,"dx":0.0017,"nx":28,"ny":28,"refTime":"2024-05-21T09:00:00:Z","depth":"0","parameterNumber":2,"parameterNumberName":"U-component_of_CURRENTS"},"data":[0,0,0,0,0,0,0,0,0,0,0,0,0,0,0,0,0,0,0,0,0,0,0,0,0,0,0,0,0,0,0,0,0,0,0,0,0,0,0,0,0,0,0,0,0,0,0,0,0,0,0,0,0,0,0,0,0,0,0.2904,0.2905,0,0.295,0.295,0.2951,0.2943,0.2943,0.2942,0.2942,0.2921,0.2921,0.2921,0,0,0,0,0,0,0,0,0,0,0,0,0,0.2799,0.2801,0.2904,0.2905,0.2906,0.295,0.295,0.2951,0.2943,0.2943,0.2942,0.2941,0.2921,0.2921,0.2921,0,0,0,0,0,0,0,0,0,0,0,0,0,0.2842,0.2801,0.2904,0.291,0.2911,0.295,0.295,0.2951,0.2943,0.2943,0.2942,0.2941,0.2921,0.2921,0.2921,0.2937,0,0,0.2921,0.2921,0,0,0,0,0,0,0,0,0.284,0.2845,0.2908,0.2909,0.2911,0.2943,0.2906,0.2944,0.2944,0.2928,0.2942,0.2941,0.2925,0.2924,0.2932,0.2936,0.2935,0.2921,0.2921,0.2921,0.2921,0,0,0,0,0,0,0,0.2837,0.2843,0.2919,0.2909,0.2911,0.2906,0.2911,0.2913,0.2927,0.2929,0.293,0.294,0.2925,0.2932,0.2931,0.2934,0.2921,0.2921,0.2921,0.2921,0.298,0.2982,0,0,0,0,0,0,0.2839,0.2841,0.2918,0.2921,0.2876,0.2909,0.2914,0.2931,0.2928,0.2929,0.294,0.2939,0.2932,0.2931,0.293,0.2973,0.2921,0.2921,0.2921,0.2979,0.2981,0.2982,0,0,0,0,0,0,0.2836,0.2845,0.2916,0.2884,0.2893,0.2912,0.293,0.2932,0.2946,0.2938,0.2936,0.2952,0.2932,0.293,0.2945,0.297,0.2921,0.2921,0.2977,0.2979,0.2981,0.3041,0,0,0,0,0,0,0.2833,0.2844,0.2857,0.2884,0.2895,0.2953,0.2931,0.2934,0.2954,0.2953,0.2948,0.2945,0.2931,0.2946,0.2945,0.2969,0.2921,0.2975,0.2978,0.2981,0.3037,0.3045,0.3052,0,0,0,0,0,0.2829,0.2849,0.2858,0.2867,0.2912,0.2954,0.2959,0.2967,0.2956,0.2973,0.2968,0.2945,0.2964,0.2947,0.2946,0.2971,0.2973,0.2977,0.298,0.3034,0.3044,0.3052,0,0,0,0,0,0,0.2807,0.2851,0.2861,0.2893,0.2929,0.2954,0.2971,0.2976,0.2987,0.298,0.2964,0.2962,0.2987,0.2974,0.2955,0.2999,0.2966,0.297,0.3007,0.3016,0.3024,0.3013,0.2921,0,0,0,0,0,0.2812,0.2838,0.2881,0.2907,0.2927,0.2951,0.2968,0.2977,0.2992,0.2996,0.2992,0.2991,0.3003,0.3004,0.3011,0.3031,0.3052,0.3048,0.3056,0.3063,0.3055,0.3115,0.3127,0.2994,0.2994,0.2994,0,0,0.281,0.2838,0.2853,0.2905,0.2929,0.2959,0.2959,0.2993,0.3008,0.2991,0.3008,0.3019,0.3016,0.3044,0.3053,0.3033,0.3121,0.3067,0.3073,0.3061,0.312,0.3133,0.3144,0.2997,0.2996,0.2996,0,0,0.2816,0.2849,0.2871,0.2908,0.2955,0.2971,0.2985,0.3021,0.303,0.3057,0.3052,0.3077,0.3087,0.3095,0.3098,0.3151,0.3162,0.316,0.3184,0.3243,0.3254,0.3264,0.3346,0.3363,0.3159,0.316,0.316,0,0.2812,0.2847,0.2885,0.2919,0.2946,0.2977,0.3005,0.3026,0.3059,0.3072,0.3067,0.3113,0.3109,0.3147,0.3165,0.3167,0.3213,0.3148,0.3253,0.3263,0.3272,0.3353,0.3371,0.3163,0.3162,0.3162,0.3162,0,0.2833,0.2867,0.2887,0.2936,0.2971,0.3005,0.3044,0.3072,0.3085,0.3104,0.3153,0.3168,0.3192,0.3207,0.3196,0.3264,0.3284,0.3261,0.3229,0.3289,0.3371,0.3389,0.3168,0.3166,0.3165,0.3165,0,0,0.2804,0.2885,0.2889,0.2925,0.2984,0.3019,0.3051,0.3095,0.3136,0.316,0.3219,0.3231,0.325,0.3255,0.3267,0.3313,0.3428,0.3316,0.3318,0.3395,0.3594,0.3588,0.3606,0.3433,0.3435,0.3437,0.3639,0,0.2806,0.2865,0.2899,0.2957,0.2997,0.3043,0.3079,0.3124,0.3169,0.324,0.3259,0.3326,0.3266,0.3317,0.3341,0.3424,0.347,0.3377,0.3523,0.3528,0.3513,0.3624,0.3494,0.366,0.3656,0.3659,0.3661,0,0.2807,0.2852,0.2903,0.2991,0.3012,0.3049,0.3134,0.3174,0.3263,0.3305,0.3353,0.3398,0.347,0.3426,0.3543,0.3495,0.3535,0.3583,0.3592,0.3568,0.3553,0.3591,0.3692,0.3608,0.3687,0.3685,0.3683,0,0.2776,0.2853,0.2894,0.2926,0.3023,0.3057,0.3105,0.3191,0.3249,0.3371,0.3452,0.3514,0.3601,0.364,0.3708,0.3652,0.3865,0.3798,0.3825,0.3826,0.3731,0.372,0.3756,0.3871,0.387,0.387,0.3869,0,0.2771,0.2809,0.2891,0.2927,0.2992,0.3059,0.3143,0.3208,0.3324,0.34,0.3487,0.358,0.3663,0.378,0.3789,0.3884,0.3924,0.3858,0.3882,0.3753,0.3742,0.3672,0.363,0.3878,0.3876,0.3874,0.3873,0,0.2752,0.2792,0.2863,0.296,0.2987,0.3044,0.3162,0.3218,0.3346,0.3466,0.352,0.3687,0.3841,0.3932,0.4064,0.4019,0.4,0.411,0.397,0.3972,0.3864,0.3831,0.3743,0.363,0.4171,0.4172,0.4173,0,0.2757,0.279,0.2887,0.2906,0.2952,0.3035,0.3073,0.3205,0.3265,0.3502,0.3548,0.3786,0.3883,0.4117,0.4146,0.4229,0.4067,0.4134,0.3965,0.3872,0.3853,0.3664,0.3559,0.389,0.3889,0.3888,0.3887,0,0.2773,0.2802,0.2842,0.2886,0.2925,0.298,0.3054,0.3109,0.3253,0.3384,0.3542,0.3672,0.3929,0.3986,0.4148,0.4148,0.3942,0.411,0.4042,0.3669,0.3435,0.3333,0.3769,0.3876,0.3877,0.3878,0.3879,0.3879,0.2769,0.2788,0.2813,0.2842,0.2869,0.2878,0.2891,0.2978,0.3075,0.3221,0.3424,0.3573,0.3782,0.3991,0.3985,0.3939,0.388,0.3817,0.3805,0.3636,0.3442,0.3871,0.3975,0.3977,0.3978,0.3979,0.398,0,0.2732,0.2729,0.2758,0.2756,0.2725,0.2782,0.2821,0.2808,0.2857,0.3058,0.3203,0.3431,0.3538,0.3666,0.3757,0.3661,0.3427,0.3573,0.3264,0.3189,0.362,0.3521,0.3494,0.3494,0.3494,0.3494,0.3495,0.3495,0.2698,0.2676,0.2674,0.2589,0.2579,0.2515,0.2508,0.2524,0.2622,0.2753,0.2896,0.308,0.339,0.3584,0.3542,0.3449,0.3172,0.3052,0.3027,0.3341,0.336,0.3378,0.3274,0.3196,0.3195,0.2426,0.2421,0.2417]},{"header":{"parameterUnit":"m.s-1","parameterCategory":2,"la1":30.2991,"la2":30.254,"lo1":-89.0895,"lo2":-89.0444,"dy":0.0017,"dx":0.0017,"nx":28,"ny":28,"refTime":"2024-05-21T09:00:00:Z","depth":"0","parameterNumber":3,"parameterNumberName":"V-component_of_CURRENTS"},"data":[0,0,0,0,0,0,0,0,0,0,0,0,0,0,0,0,0,0,0,0,0,0,0,0,0,0,0,0,0,0,0,0,0,0,0,0,0,0,0,0,0,0,0,0,0,0,0,0,0,0,0,0,0,0,0,0,0,0,0.0106,0.0105,0,0.0028,0.0027,0.0026,-0.0026,-0.0027,-0.0027,-0.0027,-0.0154,-0.0157,-0.016,0,0,0,0,0,0,0,0,0,0,0,0,0,0.0148,0.0148,0.0106,0.0105,0.0104,0.0029,0.0027,0.0026,-0.0026,-0.0027,-0.0027,-0.0028,-0.0153,-0.0157,-0.0161,0,0,0,0,0,0,0,0,0,0,0,0,0,0.0105,0.0148,0.0106,0.0069,0.0065,0.0029,0.0027,0.0026,-0.0026,-0.0027,-0.0027,-0.0028,-0.0152,-0.0157,-0.0161,-0.0181,0,0,-0.0175,-0.0177,0,0,0,0,0,0,0,0,0.0108,0.0104,0.0076,0.0072,0.0067,0.0011,-0.0004,-0.0045,-0.0026,0.0008,-0.0027,-0.0028,-0.0103,-0.0111,-0.0126,-0.0187,-0.0192,-0.0176,-0.0179,-0.0181,-0.0182,0,0,0,0,0,0,0,0.0111,0.0107,0.0074,0.0075,0.007,0.0036,0.003,-0.0013,-0.0046,0.0005,0.0001,-0.0006,-0.0106,-0.0121,-0.0129,-0.0194,-0.0176,-0.018,-0.0183,-0.0185,-0.0284,-0.0283,0,0,0,0,0,0,0.0126,0.011,0.0077,0.0072,0.0088,0.0036,0.0029,0.0029,-0.0044,-0.0055,-0.0006,-0.0008,-0.0113,-0.0124,-0.0134,-0.0158,-0.0181,-0.0185,-0.0188,-0.0284,-0.0284,-0.0283,0,0,0,0,0,0,0.0128,0.0124,0.008,0.0089,0.0081,0.0037,0.0036,0.0027,0.0012,-0.0051,-0.0064,-0.0012,-0.0114,-0.0127,-0.0169,-0.0163,-0.0187,-0.0191,-0.0284,-0.0284,-0.0283,-0.0208,0,0,0,0,0,0,0.0129,0.0125,0.0131,0.0091,0.0082,0.0066,0.0036,0.0026,0.0009,0.0005,-0.0061,-0.0073,-0.0115,-0.0162,-0.0173,-0.017,-0.0195,-0.0284,-0.0284,-0.0284,-0.021,-0.0205,-0.02,0,0,0,0,0,0.0131,0.0145,0.0132,0.0128,0.0091,0.0066,0.0059,0.0024,0.001,0.0008,-0.0038,-0.0071,-0.0168,-0.0165,-0.0179,-0.0177,-0.0284,-0.0284,-0.0284,-0.0213,-0.0206,-0.02,0,0,0,0,0,0,0.0166,0.0139,0.0125,0.0129,0.0103,0.0058,0.0056,0.003,-0.0007,-0.001,-0.0072,-0.0087,-0.0122,-0.016,-0.0155,-0.0205,-0.0231,-0.0233,-0.0172,-0.0166,-0.0161,-0.0126,-0.0199,0,0,0,0,0,0.0178,0.0179,0.0145,0.0148,0.0141,0.0099,0.0085,0.0063,0.0024,0.0008,-0.0037,-0.0086,-0.0132,-0.0155,-0.02,-0.0227,-0.0248,-0.0234,-0.0229,-0.0224,-0.0205,-0.0237,-0.0232,-0.0282,-0.0282,-0.0282,0,0,0.0189,0.0177,0.0176,0.0155,0.0134,0.0134,0.009,0.0077,0.0075,-0.0,-0.0015,-0.0071,-0.0136,-0.0166,-0.0185,-0.0197,-0.0221,-0.0224,-0.0219,-0.0203,-0.0236,-0.0231,-0.0226,-0.0282,-0.0282,-0.0282,0,0,0.022,0.0207,0.022,0.0207,0.0184,0.0161,0.0162,0.0123,0.0106,0.0081,0.0024,-0.0022,-0.0085,-0.0131,-0.0163,-0.0156,-0.0194,-0.0173,-0.0119,-0.0149,-0.0145,-0.0142,-0.0153,-0.0151,-0.0169,-0.0169,-0.0169,0,0.0236,0.0251,0.0219,0.023,0.0229,0.018,0.0197,0.0173,0.0124,0.0119,0.0089,-0.0002,-0.0065,-0.0104,-0.0107,-0.0143,-0.0158,-0.0136,-0.0141,-0.0138,-0.0135,-0.0149,-0.0147,-0.0165,-0.0166,-0.0166,-0.0166,0,0.0275,0.0288,0.0297,0.0299,0.0291,0.0298,0.0266,0.0261,0.0234,0.0204,0.0166,0.0078,0.003,-0.0008,-0.0059,-0.0077,-0.0092,-0.0131,-0.015,-0.0125,-0.0141,-0.0141,-0.016,-0.0161,-0.0162,-0.0163,0,0,0.0312,0.0324,0.0328,0.0358,0.0333,0.0344,0.0342,0.0336,0.0364,0.029,0.0309,0.0196,0.0152,0.0113,0.0036,-0.0004,-0.0015,-0.0052,-0.0056,-0.0051,-0.0063,-0.007,-0.0072,-0.0053,-0.0053,-0.0053,-0.0077,0,0.0356,0.0409,0.039,0.0446,0.0479,0.0445,0.0463,0.0449,0.0425,0.0433,0.0331,0.0316,0.0196,0.0186,0.0119,0.0029,-0.0012,-0.0003,-0.0098,-0.01,-0.01,-0.0072,-0.0077,-0.0099,-0.0078,-0.0078,-0.0078,0,0.0408,0.0441,0.0507,0.0559,0.057,0.0598,0.0642,0.0649,0.0627,0.0609,0.0552,0.0481,0.0404,0.031,0.0158,0.0173,0.0066,-0.0016,-0.002,-0.0049,-0.0107,-0.0124,-0.0101,-0.0303,-0.0078,-0.0078,-0.0078,0,0.0489,0.0531,0.0599,0.0612,0.0652,0.0693,0.0716,0.0715,0.0764,0.0738,0.078,0.0638,0.0626,0.0451,0.0262,0.022,0.0115,0.0034,-0.0077,-0.0078,-0.0112,-0.0116,-0.0283,-0.0064,-0.0064,-0.0064,-0.0064,0,0.0561,0.0623,0.0658,0.0707,0.0821,0.08,0.0917,0.0918,0.0951,0.104,0.0893,0.0938,0.0665,0.0562,0.0342,0.0153,0.0174,-0.0048,-0.0082,-0.0085,-0.0087,-0.0289,-0.0395,-0.0065,-0.0065,-0.0065,-0.0064,0,0.0668,0.0671,0.0782,0.0844,0.0876,0.0973,0.1083,0.1163,0.1171,0.1289,0.13,0.1196,0.1054,0.078,0.0526,0.0304,-0.0018,0.0018,0.0044,0.0012,-0.0305,-0.0405,-0.0575,-0.0666,-0.0114,-0.0114,-0.0114,0,0.0737,0.08,0.0916,0.0988,0.1034,0.1158,0.1248,0.1285,0.1375,0.1459,0.1533,0.1442,0.1385,0.1008,0.0589,0.022,0.0008,-0.0011,-0.0115,-0.0304,-0.0442,-0.0518,-0.0588,-0.013,-0.013,-0.0131,-0.0131,0,0.0884,0.0926,0.1013,0.1156,0.1271,0.1401,0.1527,0.1632,0.1693,0.1796,0.1886,0.1856,0.1498,0.1102,0.0602,0.0336,-0.015,-0.0028,-0.024,-0.0471,-0.0547,-0.0655,-0.0122,-0.0133,-0.0133,-0.0133,-0.0133,-0.0133,0.1007,0.11,0.1196,0.1331,0.1458,0.16,0.1722,0.1846,0.2012,0.215,0.212,0.2089,0.156,0.0857,0.0495,-0.0174,-0.0183,-0.0403,-0.0505,-0.0562,-0.0664,-0.0118,-0.0162,-0.0162,-0.0162,-0.0161,-0.0161,0,0.1125,0.1201,0.1346,0.1494,0.1626,0.1669,0.187,0.1988,0.2178,0.2282,0.2344,0.203,0.1398,0.0756,-0.0133,-0.0585,-0.0753,-0.0822,-0.0958,-0.1007,-0.054,-0.0556,-0.0666,-0.0666,-0.0666,-0.0665,-0.0665,-0.0665,0.1187,0.1316,0.1374,0.1585,0.1689,0.188,0.1992,0.2171,0.2277,0.2382,0.2321,0.224,0.1749,0.0239,-0.0805,-0.1044,-0.1333,-0.1399,-0.1543,-0.1263,-0.1233,-0.1204,-0.1247,-0.15,-0.1501,-0.1972,-0.1977,-0.198]}],[{"header":{"parameterUnit":"m.s-1","parameterCategory":2,"la1":30.2991,"la2":30.254,"lo1":-89.0895,"lo2":-89.0444,"dy":0.0017,"dx":0.0017,"nx":28,"ny":28,"refTime":"2024-05-21T09:00:00:Z","depth":"2","parameterNumber":2,"parameterNumberName":"U-component_of_CURRENTS"},"data":[0,0,0,0,0,0,0,0,0,0,0,0,0,0,0,0,0,0,0,0,0,0,0,0,0,0,0,0,0,0,0,0,0,0,0,0,0,0,0,0,0,0,0,0,0,0,0,0,0,0,0,0,0,0,0,0,0,0,0.2627,0.2628,0,0.265,0.265,0.265,0.2654,0.2654,0.2654,0.2654,0.2675,0.2675,0.2675,0,0,0,0,0,0,0,0,0,0,0,0,0,0.2526,0.2528,0.2627,0.2628,0.2629,0.265,0.265,0.265,0.2654,0.2654,0.2654,0.2655,0.2675,0.2675,0.2675,0,0,0,0,0,0,0,0,0,0,0,0,0,0.2557,0.2528,0.2627,0.2637,0.2639,0.265,0.265,0.265,0.2653,0.2654,0.2654,0.2655,0.2675,0.2675,0.2675,0.2669,0,0,0.2677,0.2677,0,0,0,0,0,0,0,0,0.2555,0.256,0.2635,0.2636,0.2638,0.2654,0.2622,0.2658,0.2653,0.2642,0.2654,0.2655,0.2671,0.2671,0.2667,0.267,0.2671,0.2677,0.2677,0.2677,0.2677,0,0,0,0,0,0,0,0.2553,0.2559,0.2631,0.2636,0.2638,0.262,0.2625,0.2628,0.265,0.2643,0.2645,0.2656,0.2671,0.2667,0.2668,0.2671,0.2677,0.2677,0.2677,0.2677,0.274,0.2741,0,0,0,0,0,0,0.2564,0.2557,0.263,0.2632,0.2603,0.2622,0.2627,0.2644,0.265,0.2652,0.2655,0.2656,0.2666,0.2667,0.2669,0.2724,0.2677,0.2677,0.2678,0.2739,0.274,0.2742,0,0,0,0,0,0,0.2562,0.257,0.2629,0.2598,0.2606,0.2625,0.2643,0.2645,0.2663,0.266,0.2662,0.2675,0.2666,0.2668,0.2696,0.2723,0.2678,0.2678,0.2737,0.2739,0.2741,0.2795,0,0,0,0,0,0,0.2559,0.2569,0.2586,0.26,0.2608,0.2661,0.2643,0.2645,0.267,0.2671,0.2677,0.2678,0.2667,0.2695,0.2696,0.2722,0.2678,0.2735,0.2738,0.274,0.2791,0.2799,0.2805,0,0,0,0,0,0.2555,0.2578,0.2586,0.2595,0.263,0.2663,0.2665,0.2675,0.2671,0.269,0.2692,0.2679,0.2713,0.2697,0.2697,0.2724,0.2734,0.2737,0.274,0.2788,0.2797,0.2805,0,0,0,0,0,0,0.2545,0.2581,0.2591,0.2625,0.2654,0.2666,0.2682,0.2689,0.2703,0.2705,0.2695,0.2697,0.2736,0.2722,0.2705,0.2751,0.2722,0.2726,0.2759,0.2767,0.2774,0.2782,0.2679,0,0,0,0,0,0.2551,0.2583,0.2611,0.2645,0.2656,0.2671,0.2686,0.2699,0.2713,0.272,0.2725,0.273,0.2745,0.275,0.2763,0.2781,0.28,0.2801,0.2807,0.2813,0.2822,0.2872,0.2884,0.2752,0.2752,0.2752,0,0,0.2557,0.2585,0.2602,0.2646,0.2662,0.268,0.2681,0.2716,0.2733,0.272,0.2745,0.2761,0.2759,0.2788,0.2803,0.278,0.2865,0.2817,0.2822,0.2828,0.2877,0.2889,0.2901,0.2755,0.2754,0.2754,0,0,0.2581,0.261,0.2635,0.2664,0.2704,0.2707,0.2724,0.275,0.2764,0.2793,0.2793,0.2826,0.2836,0.2846,0.2848,0.2898,0.2908,0.2906,0.2937,0.2986,0.2997,0.3007,0.3067,0.3082,0.2899,0.2899,0.2899,0,0.2586,0.2619,0.265,0.2681,0.2699,0.272,0.274,0.2757,0.2793,0.2813,0.2811,0.2862,0.2861,0.29,0.2918,0.2914,0.2951,0.2904,0.2995,0.3005,0.3015,0.3073,0.3089,0.2902,0.2902,0.2901,0.2901,0,0.2618,0.2649,0.2669,0.2706,0.2733,0.276,0.2786,0.2818,0.2831,0.285,0.291,0.2923,0.2952,0.2962,0.2952,0.3022,0.3032,0.3007,0.2974,0.3031,0.309,0.3105,0.2906,0.2905,0.2904,0.2904,0,0,0.2605,0.2673,0.2679,0.2705,0.2746,0.2775,0.2807,0.2842,0.2882,0.2916,0.2974,0.2998,0.3022,0.3028,0.3036,0.3076,0.3176,0.3074,0.3075,0.3134,0.331,0.3255,0.3266,0.3174,0.3176,0.3178,0.3331,0,0.2611,0.2667,0.2694,0.2739,0.2763,0.2799,0.283,0.2878,0.2916,0.2983,0.3013,0.3079,0.304,0.3087,0.3112,0.3176,0.3217,0.3138,0.3245,0.3249,0.3192,0.3281,0.3035,0.3144,0.3346,0.3348,0.335,0,0.2614,0.2655,0.2704,0.2765,0.2778,0.2814,0.2883,0.2917,0.3003,0.3047,0.3107,0.315,0.3228,0.3191,0.3297,0.3256,0.3285,0.332,0.3325,0.3264,0.3222,0.3115,0.3164,0.3376,0.3374,0.3372,0.337,0,0.2589,0.2651,0.2692,0.2718,0.2794,0.2835,0.2867,0.2947,0.3005,0.3118,0.3196,0.3259,0.3344,0.3377,0.3427,0.3387,0.3553,0.3496,0.3472,0.3469,0.3273,0.3247,0.3569,0.3569,0.3568,0.3568,0.3568,0,0.2574,0.2614,0.2698,0.2732,0.2791,0.2845,0.2923,0.2976,0.3087,0.3158,0.3238,0.3321,0.3402,0.3491,0.3491,0.3542,0.3598,0.3507,0.3511,0.3286,0.3262,0.3458,0.3444,0.3574,0.3572,0.3571,0.357,0,0.2563,0.2607,0.2678,0.2767,0.2792,0.2851,0.296,0.3009,0.313,0.3239,0.3296,0.3434,0.3537,0.3601,0.3698,0.3647,0.3688,0.3683,0.3425,0.3394,0.3557,0.3544,0.3683,0.3682,0.3682,0.3681,0.3681,0,0.2566,0.2598,0.2709,0.2739,0.279,0.2872,0.2906,0.3021,0.3075,0.3275,0.3315,0.35,0.3542,0.3685,0.3678,0.3707,0.3723,0.3479,0.3333,0.3583,0.3573,0.356,0.3547,0.311,0.3105,0.3101,0.3097,0,0.2567,0.2619,0.2666,0.2734,0.2785,0.284,0.2905,0.2953,0.307,0.3169,0.3278,0.3353,0.3516,0.3438,0.3515,0.3477,0.3451,0.3397,0.3749,0.311,0.3053,0.3039,0.3043,0.3061,0.3065,0.3067,0.3069,0.3071,0.2559,0.259,0.2641,0.2688,0.2741,0.2758,0.2746,0.2817,0.2875,0.2943,0.3097,0.3118,0.3207,0.3185,0.3115,0.3097,0.3311,0.3151,0.316,0.3173,0.3071,0.3014,0.2999,0.3002,0.3004,0.3007,0.3009,0,0.249,0.2521,0.257,0.2595,0.2589,0.2672,0.2687,0.2628,0.261,0.2745,0.2799,0.2619,0.2611,0.2702,0.2636,0.2661,0.2591,0.254,0.2419,0.2461,0.2497,0.2353,0.2094,0.209,0.2087,0.2083,0,0,0.2461,0.2435,0.2445,0.2403,0.2435,0.2379,0.2355,0.231,0.2357,0.2296,0.2314,0.2499,0.2651,0.2322,0.2313,0.2194,0.2295,0.2115,0.2867,0.277,0.28,0.289,0.2724,0,0,0,0,0]},{"header":{"parameterUnit":"m.s-1","parameterCategory":2,"la1":30.2991,"la2":30.254,"lo1":-89.0895,"lo2":-89.0444,"dy":0.0017,"dx":0.0017,"nx":28,"ny":28,"refTime":"2024-05-21T09:00:00:Z","depth":"2","parameterNumber":3,"parameterNumberName":"V-component_of_CURRENTS"},"data":[0,0,0,0,0,0,0,0,0,0,0,0,0,0,0,0,0,0,0,0,0,0,0,0,0,0,0,0,0,0,0,0,0,0,0,0,0,0,0,0,0,0,0,0,0,0,0,0,0,0,0,0,0,0,0,0,0,0,0.0019,0.0018,0,-0.004,-0.004,-0.0041,-0.0086,-0.0086,-0.0087,-0.0087,-0.0203,-0.0205,-0.0208,0,0,0,0,0,0,0,0,0,0,0,0,0,0.004,0.004,0.0019,0.0018,0.0018,-0.004,-0.004,-0.0041,-0.0086,-0.0086,-0.0087,-0.0087,-0.0202,-0.0205,-0.0208,0,0,0,0,0,0,0,0,0,0,0,0,0,0.0011,0.004,0.0019,-0.0011,-0.0015,-0.0039,-0.004,-0.0042,-0.0086,-0.0086,-0.0087,-0.0087,-0.0201,-0.0205,-0.0209,-0.0223,0,0,-0.0221,-0.0223,0,0,0,0,0,0,0,0,0.0013,0.001,-0.0006,-0.0009,-0.0013,-0.0056,-0.0075,-0.0105,-0.0085,-0.0059,-0.0087,-0.0088,-0.0158,-0.0166,-0.0175,-0.0228,-0.0233,-0.0222,-0.0224,-0.0226,-0.0227,0,0,0,0,0,0,0,0.0015,0.0012,-0.0005,-0.0007,-0.0011,-0.004,-0.0044,-0.0081,-0.0106,-0.0061,-0.0065,-0.007,-0.0161,-0.0171,-0.0179,-0.0235,-0.0222,-0.0225,-0.0228,-0.0229,-0.0316,-0.0316,0,0,0,0,0,0,0.0026,0.0015,-0.0003,-0.0006,-0.0001,-0.0039,-0.0044,-0.0042,-0.0105,-0.0114,-0.007,-0.0072,-0.0164,-0.0174,-0.0183,-0.0203,-0.0226,-0.023,-0.0232,-0.0316,-0.0316,-0.0315,0,0,0,0,0,0,0.0027,0.0026,-0.0,0.0002,-0.0003,-0.0039,-0.0036,-0.0043,-0.0054,-0.011,-0.0121,-0.0074,-0.0165,-0.0177,-0.0214,-0.0208,-0.0232,-0.0235,-0.0316,-0.0316,-0.0316,-0.0243,0,0,0,0,0,0,0.0028,0.0027,0.0032,0.0004,-0.0003,-0.0008,-0.0035,-0.0043,-0.0057,-0.006,-0.0118,-0.0129,-0.0166,-0.0208,-0.0218,-0.0214,-0.0239,-0.0316,-0.0316,-0.0316,-0.0245,-0.024,-0.0236,0,0,0,0,0,0.0029,0.0046,0.0033,0.0031,0.0007,-0.0007,-0.0013,-0.0041,-0.0056,-0.0055,-0.0097,-0.0127,-0.0213,-0.0211,-0.0223,-0.022,-0.0316,-0.0316,-0.0316,-0.0248,-0.0241,-0.0236,0,0,0,0,0,0,0.0058,0.0042,0.0028,0.0038,0.0018,-0.0015,-0.0015,-0.0036,-0.0067,-0.0072,-0.0127,-0.0141,-0.0172,-0.0206,-0.0202,-0.0244,-0.0269,-0.0271,-0.0213,-0.0208,-0.0203,-0.0176,-0.0242,0,0,0,0,0,0.0068,0.0076,0.005,0.0057,0.0051,0.0018,0.0009,-0.0009,-0.0041,-0.0054,-0.0094,-0.0139,-0.0179,-0.0201,-0.024,-0.0262,-0.0291,-0.0268,-0.0263,-0.0259,-0.0246,-0.0284,-0.0281,-0.0314,-0.0314,-0.0314,0,0,0.0079,0.0072,0.0075,0.0063,0.0047,0.005,0.0012,0.0005,0.0005,-0.0063,-0.0075,-0.0124,-0.0182,-0.0208,-0.0224,-0.0235,-0.0264,-0.0258,-0.0254,-0.0243,-0.0283,-0.028,-0.0277,-0.0314,-0.0314,-0.0314,0,0,0.0112,0.0103,0.012,0.0112,0.0095,0.0076,0.0077,0.0048,0.0033,0.0012,-0.0039,-0.008,-0.0134,-0.0174,-0.0203,-0.0195,-0.0238,-0.0209,-0.0162,-0.0199,-0.0196,-0.0194,-0.0223,-0.0224,-0.0205,-0.0205,-0.0205,0,0.0126,0.0146,0.0122,0.0137,0.0136,0.0093,0.011,0.0091,0.0052,0.0043,0.002,-0.0063,-0.0116,-0.0153,-0.0152,-0.0182,-0.0207,-0.0178,-0.0191,-0.019,-0.0189,-0.0219,-0.0221,-0.0201,-0.0202,-0.0202,-0.0202,0,0.017,0.0185,0.0197,0.0202,0.0197,0.0206,0.0178,0.0173,0.0147,0.0118,0.0081,0.0008,-0.0037,-0.0067,-0.0109,-0.013,-0.015,-0.018,-0.0201,-0.0181,-0.0214,-0.0218,-0.0196,-0.0198,-0.0199,-0.0199,0,0,0.0207,0.0225,0.0229,0.0248,0.0234,0.024,0.0244,0.0232,0.0242,0.0189,0.0191,0.0105,0.0064,0.0029,-0.0033,-0.0072,-0.0096,-0.0116,-0.0119,-0.0134,-0.0169,-0.0207,-0.0215,-0.0127,-0.0127,-0.0127,-0.0193,0,0.0249,0.0296,0.0288,0.0331,0.0354,0.0327,0.0337,0.0321,0.0293,0.0286,0.0205,0.0181,0.0101,0.0085,0.003,-0.0061,-0.0102,-0.0074,-0.0195,-0.0198,-0.0227,-0.022,-0.017,-0.0227,-0.0197,-0.0198,-0.0198,0,0.0298,0.0323,0.0378,0.0407,0.0415,0.044,0.0455,0.0456,0.0425,0.0407,0.036,0.0297,0.023,0.0166,0.0024,0.0047,-0.0049,-0.0126,-0.0131,-0.0192,-0.0243,-0.0245,-0.0235,-0.0205,-0.0204,-0.0204,-0.0203,0,0.0344,0.0388,0.0439,0.045,0.0475,0.0506,0.0516,0.0501,0.0528,0.0494,0.0514,0.0401,0.0374,0.0234,0.0065,0.0051,-0.0089,-0.013,-0.0257,-0.026,-0.0255,-0.0258,-0.0224,-0.0224,-0.0224,-0.0224,-0.0224,0,0.039,0.0435,0.0479,0.0509,0.0582,0.0574,0.0643,0.0633,0.0655,0.069,0.0589,0.0591,0.0392,0.028,0.0109,-0.0081,-0.0058,-0.0242,-0.028,-0.0229,-0.0229,-0.024,-0.0241,-0.0226,-0.0226,-0.0225,-0.0225,0,0.0437,0.046,0.0539,0.0591,0.0611,0.0673,0.0751,0.0793,0.0804,0.0854,0.0859,0.0757,0.0598,0.0387,0.0159,-0.0005,-0.0195,-0.0269,-0.0194,-0.0223,-0.0351,-0.0348,-0.041,-0.0412,-0.0413,-0.0415,-0.0416,0,0.0464,0.0507,0.0607,0.0654,0.069,0.0776,0.0824,0.0867,0.0915,0.0945,0.0967,0.0858,0.0758,0.0418,0.012,-0.0172,-0.0216,-0.0321,-0.0352,-0.0339,-0.037,-0.0364,-0.0359,-0.0313,-0.0313,-0.0313,-0.0313,0,0.0504,0.0556,0.0608,0.0705,0.0785,0.0887,0.0961,0.1041,0.1081,0.1116,0.1127,0.1066,0.0767,0.047,0.0079,-0.0117,-0.0274,-0.0336,-0.0334,-0.0279,-0.0256,-0.0283,-0.028,-0.0315,-0.0315,-0.0315,-0.0315,-0.0314,0.0532,0.0584,0.0644,0.0742,0.0838,0.096,0.1041,0.1132,0.1219,0.1276,0.122,0.1158,0.0855,0.0362,0.0021,-0.0302,-0.0299,-0.0412,-0.0408,-0.0405,-0.0387,-0.0369,-0.0445,-0.0445,-0.0446,-0.0446,-0.0447,0,0.0532,0.0579,0.0658,0.0771,0.0876,0.0947,0.1088,0.1162,0.1262,0.1342,0.1343,0.1062,0.075,0.0424,-0.0053,-0.0373,-0.0379,-0.0468,-0.0399,-0.0394,-0.0392,-0.0372,-0.0427,-0.0428,-0.0428,-0.0429,0,0,0.0531,0.0573,0.0611,0.0757,0.0863,0.1002,0.1102,0.1224,0.1316,0.1353,0.1364,0.1301,0.0907,0.0557,0.013,-0.0137,-0.0193,-0.0192,-0.0172,-0.0035,-0.0028,-0.0321,-0.0282,0,0,0,0,0]}],[{"header":{"parameterUnit":"m.s-1","parameterCategory":2,"la1":30.2991,"la2":30.254,"lo1":-89.0895,"lo2":-89.0444,"dy":0.0017,"dx":0.0017,"nx":28,"ny":28,"refTime":"2024-05-21T09:00:00:Z","depth":"4","parameterNumber":2,"parameterNumberName":"U-component_of_CURRENTS"},"data":[0,0,0,0,0,0,0,0,0,0,0,0,0,0,0,0,0,0,0,0,0,0,0,0,0,0,0,0,0,0,0,0,0,0,0,0,0,0,0,0,0,0,0,0,0,0,0,0,0,0,0,0,0,0,0,0,0,0,0.1595,0.1596,0,0.1686,0.1687,0.1688,0.1765,0.1766,0.1766,0.1767,0.1866,0.1868,0.1869,0,0,0,0,0,0,0,0,0,0,0,0,0,0.1507,0.1508,0.1594,0.1596,0.1597,0.1686,0.1687,0.1689,0.1764,0.1766,0.1767,0.1768,0.1865,0.1867,0.1869,0,0,0,0,0,0,0,0,0,0,0,0,0,0.1565,0.1508,0.1594,0.1647,0.1653,0.1686,0.1687,0.1689,0.1764,0.1766,0.1767,0.1768,0.1865,0.1867,0.187,0.1857,0,0,0.1878,0.1879,0,0,0,0,0,0,0,0,0.1561,0.1568,0.1638,0.1643,0.165,0.1717,0.1693,0.1746,0.1764,0.172,0.1767,0.1769,0.1817,0.1823,0.1835,0.1861,0.1866,0.1878,0.1879,0.188,0.1881,0,0,0,0,0,0,0,0.1557,0.1564,0.1629,0.1639,0.1646,0.1674,0.1683,0.1703,0.1758,0.1724,0.173,0.1742,0.182,0.1832,0.1838,0.1867,0.1878,0.188,0.1882,0.1883,0.2012,0.2014,0,0,0,0,0,0,0.1546,0.156,0.1626,0.1632,0.161,0.1674,0.1685,0.1693,0.1758,0.177,0.1741,0.1746,0.1827,0.1835,0.1842,0.1941,0.188,0.1883,0.1884,0.201,0.2013,0.2015,0,0,0,0,0,0,0.1544,0.1551,0.1623,0.16,0.1611,0.1674,0.1683,0.1694,0.1741,0.1771,0.1783,0.1781,0.1829,0.1838,0.19,0.1941,0.1884,0.1886,0.2008,0.2011,0.2014,0.2068,0,0,0,0,0,0,0.1541,0.1549,0.157,0.1599,0.1612,0.1663,0.1682,0.1695,0.1745,0.1753,0.1809,0.1817,0.183,0.1896,0.1903,0.1943,0.1888,0.2006,0.2009,0.2013,0.2063,0.2072,0.2079,0,0,0,0,0,0.1537,0.1554,0.157,0.1579,0.1632,0.1664,0.1673,0.1721,0.1746,0.1769,0.1818,0.1818,0.1923,0.19,0.1907,0.1949,0.2004,0.2008,0.2012,0.206,0.207,0.2079,0,0,0,0,0,0,0.1527,0.1564,0.1582,0.161,0.1644,0.1678,0.1711,0.1736,0.1792,0.1813,0.1838,0.1851,0.1921,0.1926,0.1899,0.1998,0.1965,0.197,0.1998,0.2008,0.2016,0.2014,0.1891,0,0,0,0,0,0.1531,0.1554,0.159,0.1614,0.1636,0.1678,0.1705,0.1735,0.1779,0.1806,0.1848,0.1895,0.1937,0.1966,0.2,0.2048,0.2059,0.2082,0.209,0.2097,0.2101,0.2155,0.2168,0.2029,0.2029,0.2028,0,0,0.1533,0.1557,0.1572,0.1614,0.1648,0.1684,0.1699,0.1747,0.179,0.1806,0.1891,0.1924,0.1956,0.202,0.2051,0.2034,0.2144,0.2102,0.2107,0.2108,0.2161,0.2174,0.2186,0.2031,0.2031,0.203,0,0,0.1535,0.1572,0.1592,0.1625,0.168,0.1709,0.1728,0.1785,0.1831,0.19,0.1929,0.1988,0.2053,0.2086,0.2108,0.2176,0.2183,0.2194,0.2236,0.2288,0.23,0.231,0.2345,0.2358,0.2199,0.2199,0.2199,0,0.154,0.157,0.1604,0.1635,0.1674,0.1723,0.1761,0.1807,0.1881,0.1927,0.194,0.2058,0.2084,0.2157,0.2188,0.2194,0.2222,0.2195,0.2298,0.2308,0.2318,0.2352,0.2365,0.2202,0.2202,0.2202,0.2201,0,0.1551,0.1593,0.1612,0.1669,0.1712,0.1755,0.1818,0.188,0.1943,0.1991,0.2093,0.2133,0.2205,0.2223,0.223,0.2316,0.2313,0.23,0.227,0.2335,0.2367,0.238,0.2207,0.2206,0.2205,0.2204,0,0,0.1517,0.1603,0.1614,0.1656,0.174,0.1774,0.1858,0.1945,0.2017,0.2092,0.2182,0.2254,0.2289,0.2315,0.2334,0.2376,0.2468,0.2376,0.2377,0.2405,0.2588,0.2422,0.242,0.2482,0.2485,0.2487,0.2583,0,0.1523,0.1582,0.163,0.1707,0.1751,0.1832,0.1907,0.1995,0.2081,0.218,0.2239,0.2329,0.232,0.237,0.2413,0.2461,0.2506,0.2443,0.2526,0.2528,0.2367,0.2431,0.2495,0.2593,0.2596,0.2598,0.2599,0,0.1519,0.1565,0.1635,0.1745,0.1775,0.1834,0.1974,0.2051,0.2188,0.2259,0.2352,0.2404,0.2495,0.2471,0.2581,0.2548,0.2578,0.2598,0.2602,0.2435,0.2386,0.2515,0.2623,0.2621,0.262,0.2618,0.2617,0,0.1471,0.1573,0.1633,0.1668,0.1794,0.186,0.1945,0.2083,0.2162,0.2321,0.2393,0.2498,0.2568,0.2625,0.2669,0.2649,0.2772,0.2744,0.2619,0.2608,0.2705,0.2692,0.282,0.282,0.282,0.2819,0.2819,0,0.1446,0.15,0.1624,0.1652,0.1748,0.1853,0.1969,0.2073,0.2219,0.2307,0.2436,0.2498,0.2615,0.2688,0.2713,0.2702,0.2813,0.2635,0.2624,0.2725,0.2715,0.2714,0.27,0.2823,0.2822,0.2821,0.2821,0,0.1376,0.1455,0.1531,0.1671,0.1723,0.1797,0.1964,0.2042,0.2203,0.2321,0.2376,0.2532,0.2626,0.271,0.2807,0.2739,0.2756,0.2725,0.2836,0.2829,0.2549,0.2538,0.2595,0.259,0.2585,0.2582,0.2579,0,0.1346,0.1377,0.152,0.1567,0.1635,0.1758,0.1838,0.2014,0.2091,0.2307,0.2344,0.2496,0.2579,0.2586,0.2683,0.2725,0.2693,0.2686,0.2601,0.2543,0.2529,0.2524,0.2518,0.2572,0.2571,0.257,0.2569,0,0.1284,0.1342,0.1396,0.1484,0.1573,0.1662,0.1791,0.183,0.2029,0.2186,0.226,0.2317,0.2416,0.2477,0.2533,0.2552,0.2679,0.2641,0.2649,0.2569,0.2517,0.2505,0.2505,0.2554,0.2556,0.2558,0.2558,0,0.1234,0.1251,0.1317,0.1392,0.1486,0.1536,0.1622,0.1715,0.1812,0.2051,0.2061,0.2231,0.2377,0.2388,0.2434,0.2447,0.241,0.2329,0.2353,0.237,0.2251,0.2149,0.2072,0,0,0,0,0,0.1171,0.1168,0.1221,0.1285,0.1372,0.1434,0.1573,0.1665,0.185,0.1852,0.1954,0.2036,0.2111,0.2194,0.2165,0.2339,0.2419,0.2294,0.2337,0.2473,0.249,0.237,0,0,0,0,0,0,0.1117,0.1146,0.1171,0.118,0.1213,0.1298,0.1383,0.1514,0.1527,0.1718,0.1769,0.1915,0.2018,0.2108,0.2126,0.2154,0.214,0.2405,0.24,0.2463,0.2478,0.2492,0.2375,0,0,0,0,0]},{"header":{"parameterUnit":"m.s-1","parameterCategory":2,"la1":30.2991,"la2":30.254,"lo1":-89.0895,"lo2":-89.0444,"dy":0.0017,"dx":0.0017,"nx":28,"ny":28,"refTime":"2024-05-21T09:00:00:Z","depth":"4","parameterNumber":3,"parameterNumberName":"V-component_of_CURRENTS"},"data":[0,0,0,0,0,0,0,0,0,0,0,0,0,0,0,0,0,0,0,0,0,0,0,0,0,0,0,0,0,0,0,0,0,0,0,0,0,0,0,0,0,0,0,0,0,0,0,0,0,0,0,0,0,0,0,0,0,0,0.0051,0.005,0,0.0017,0.0016,0.0016,-0.0018,-0.0018,-0.0018,-0.0019,-0.0109,-0.0111,-0.0113,0,0,0,0,0,0,0,0,0,0,0,0,0,0.0046,0.0046,0.0051,0.005,0.005,0.0017,0.0016,0.0016,-0.0018,-0.0018,-0.0018,-0.0019,-0.0108,-0.011,-0.0113,0,0,0,0,0,0,0,0,0,0,0,0,0,0.0033,0.0046,0.0051,0.003,0.0028,0.0017,0.0016,0.0015,-0.0017,-0.0018,-0.0019,-0.0019,-0.0107,-0.011,-0.0113,-0.0121,0,0,-0.0123,-0.0124,0,0,0,0,0,0,0,0,0.0034,0.0033,0.0033,0.0031,0.0029,0.0004,-0.0019,-0.0033,-0.0017,-0.0001,-0.0019,-0.0019,-0.0075,-0.0081,-0.0086,-0.0125,-0.0129,-0.0123,-0.0125,-0.0126,-0.0127,0,0,0,0,0,0,0,0.0035,0.0034,0.0037,0.0033,0.003,0.0008,0.0006,-0.0022,-0.0036,-0.0002,-0.0005,-0.0007,-0.0077,-0.0083,-0.0089,-0.013,-0.0123,-0.0125,-0.0127,-0.0129,-0.0195,-0.0195,0,0,0,0,0,0,0.0043,0.0035,0.0038,0.0036,0.0031,0.0009,0.0006,0.0012,-0.0035,-0.0042,-0.0007,-0.0009,-0.0078,-0.0085,-0.0092,-0.0108,-0.0126,-0.0129,-0.0131,-0.0195,-0.0195,-0.0195,0,0,0,0,0,0,0.0043,0.0044,0.0039,0.0034,0.0032,0.001,0.0016,0.0012,0.0005,-0.0037,-0.0046,-0.0009,-0.0079,-0.0088,-0.0116,-0.0111,-0.013,-0.0133,-0.0195,-0.0195,-0.0195,-0.0136,0,0,0,0,0,0,0.0043,0.0044,0.005,0.0036,0.0033,0.0039,0.0016,0.0011,0.0004,0.0001,-0.0042,-0.0051,-0.008,-0.0111,-0.0119,-0.0116,-0.0135,-0.0195,-0.0195,-0.0195,-0.0138,-0.0134,-0.0131,0,0,0,0,0,0.0043,0.0059,0.0051,0.005,0.0042,0.004,0.0037,0.0018,0.0005,0.0008,-0.0025,-0.005,-0.0116,-0.0113,-0.0123,-0.012,-0.0195,-0.0195,-0.0195,-0.014,-0.0135,-0.0131,0,0,0,0,0,0,0.0059,0.0057,0.0047,0.0061,0.0052,0.0035,0.0036,0.0022,-0.0,-0.0006,-0.0048,-0.0059,-0.0082,-0.011,-0.0106,-0.014,-0.016,-0.0161,-0.0115,-0.0111,-0.0107,-0.0091,-0.0138,0,0,0,0,0,0.0066,0.0078,0.0066,0.0077,0.0074,0.0055,0.005,0.004,0.0019,0.0009,-0.0022,-0.0057,-0.0088,-0.0105,-0.0134,-0.0152,-0.0184,-0.0158,-0.0154,-0.015,-0.0145,-0.0187,-0.0186,-0.0194,-0.0194,-0.0194,0,0,0.0074,0.0075,0.008,0.0081,0.0072,0.0077,0.0051,0.0052,0.0053,0.0002,-0.0009,-0.0044,-0.0089,-0.0109,-0.0122,-0.0132,-0.0166,-0.015,-0.0147,-0.0143,-0.0186,-0.0185,-0.0185,-0.0194,-0.0194,-0.0194,0,0,0.0101,0.0098,0.0116,0.0114,0.0109,0.0097,0.0099,0.0084,0.0072,0.0059,0.002,-0.0011,-0.0053,-0.0084,-0.0106,-0.01,-0.0143,-0.011,-0.008,-0.012,-0.012,-0.012,-0.0161,-0.0165,-0.011,-0.0109,-0.0109,0,0.0109,0.0129,0.0119,0.0135,0.0136,0.0109,0.0123,0.0112,0.0088,0.0078,0.0063,-0.0003,-0.004,-0.0072,-0.0069,-0.009,-0.0121,-0.0092,-0.0115,-0.0115,-0.0116,-0.0159,-0.0164,-0.0107,-0.0107,-0.0107,-0.0107,0,0.0146,0.0161,0.0172,0.0182,0.0182,0.0191,0.0175,0.0171,0.0151,0.0131,0.0099,0.0048,0.0008,-0.001,-0.0037,-0.0062,-0.0084,-0.0103,-0.0123,-0.0112,-0.0157,-0.0164,-0.0103,-0.0104,-0.0104,-0.0105,0,0,0.0168,0.0193,0.0196,0.0205,0.0208,0.021,0.0217,0.0208,0.0206,0.0174,0.0162,0.0108,0.0076,0.0049,0.0005,-0.003,-0.0065,-0.0063,-0.0067,-0.0097,-0.0156,-0.016,-0.0168,-0.0087,-0.0088,-0.0088,-0.0186,0,0.0197,0.0232,0.0239,0.0265,0.0276,0.0265,0.0273,0.0262,0.0239,0.0222,0.0166,0.0136,0.0099,0.0077,0.0038,-0.004,-0.0079,-0.0037,-0.0168,-0.0172,-0.0171,-0.0174,-0.009,-0.0191,-0.0193,-0.0194,-0.0195,0,0.0228,0.0245,0.0278,0.0299,0.0304,0.0319,0.0318,0.0324,0.0297,0.0279,0.0243,0.0196,0.0139,0.0106,-0.0013,0.0016,-0.0061,-0.0122,-0.0128,-0.0154,-0.0187,-0.0206,-0.0207,-0.0206,-0.0205,-0.0204,-0.0203,0,0.023,0.0271,0.0295,0.0303,0.0325,0.0339,0.0349,0.0338,0.0341,0.0313,0.0304,0.0232,0.0189,0.0096,-0.0026,-0.0022,-0.0163,-0.0177,-0.0255,-0.0256,-0.025,-0.0249,-0.0261,-0.0261,-0.0261,-0.0261,-0.0261,0,0.0245,0.0263,0.0301,0.031,0.0341,0.0355,0.0376,0.0379,0.0379,0.0386,0.0333,0.0311,0.0184,0.009,-0.0016,-0.0154,-0.0159,-0.0249,-0.028,-0.0224,-0.0219,-0.0255,-0.0253,-0.0264,-0.0264,-0.0263,-0.0262,0,0.0228,0.0257,0.0284,0.0322,0.0341,0.0359,0.04,0.0417,0.0418,0.0427,0.0421,0.0355,0.0242,0.0104,-0.0061,-0.0144,-0.0274,-0.0325,-0.0255,-0.0281,-0.0343,-0.0337,-0.0414,-0.0415,-0.0416,-0.0417,-0.0417,0,0.0217,0.0233,0.0286,0.0312,0.0331,0.0367,0.0401,0.0429,0.0453,0.0454,0.0461,0.0364,0.0303,0.0079,-0.0073,-0.028,-0.031,-0.0379,-0.0356,-0.0336,-0.0359,-0.0351,-0.0344,-0.0418,-0.0419,-0.0419,-0.0419,0,0.0193,0.0217,0.0244,0.0306,0.0351,0.0396,0.0449,0.0473,0.0514,0.0505,0.05,0.0395,0.0262,0.0092,-0.0078,-0.0225,-0.033,-0.0387,-0.0387,-0.0365,-0.0342,-0.0362,-0.0354,-0.0422,-0.0421,-0.0421,-0.0421,0,0.0179,0.0196,0.0252,0.0307,0.0368,0.0435,0.0451,0.0502,0.0531,0.0549,0.0539,0.0415,0.0337,0.0117,-0.0036,-0.0183,-0.0218,-0.0257,-0.0264,-0.0263,-0.0189,-0.0135,-0.0177,0,0,0,0,0,0.0174,0.021,0.0254,0.0331,0.0394,0.0438,0.0501,0.0519,0.0557,0.0568,0.0564,0.0452,0.0246,0.0149,0.0003,-0.0074,-0.0265,-0.0253,-0.0318,-0.0436,-0.0433,-0.0373,0,0,0,0,0,0,0.0174,0.0221,0.0255,0.0355,0.041,0.049,0.0535,0.0554,0.0562,0.0572,0.0465,0.0417,0.0207,0.0335,0.0003,-0.0045,-0.0106,-0.0354,-0.0357,-0.0438,-0.0435,-0.0433,-0.0369,0,0,0,0,0]}]]